Year,Month,Day,Hour,Minute,Value (Times are PST for windspeed in km/hr)
2014,11,06,00,00,0.00
2014,11,06,00,01,0.00
2014,11,06,00,02,0.00
2014,11,06,00,03,0.00
2014,11,06,00,04,0.00
2014,11,06,00,05,0.00
2014,11,06,00,06,0.10
2014,11,06,00,07,1.50
2014,11,06,00,08,7.60
2014,11,06,00,09,7.80
2014,11,06,00,10,1.80
2014,11,06,00,11,2.20
2014,11,06,00,12,4.20
2014,11,06,00,13,3.90
2014,11,06,00,14,1.80
2014,11,06,00,15,0.00
2014,11,06,00,16,0.10
2014,11,06,00,17,2.70
2014,11,06,00,18,2.50
2014,11,06,00,19,3.10
2014,11,06,00,20,2.60
2014,11,06,00,21,0.00
2014,11,06,00,22,0.60
2014,11,06,00,23,0.00
2014,11,06,00,24,0.00
2014,11,06,00,25,0.00
2014,11,06,00,26,0.00
2014,11,06,00,27,0.00
2014,11,06,00,28,0.00
2014,11,06,00,29,1.20
2014,11,06,00,30,0.80
2014,11,06,00,31,0.00
2014,11,06,00,32,0.00
2014,11,06,00,33,0.00
2014,11,06,00,34,0.00
2014,11,06,00,35,0.00
2014,11,06,00,36,0.00
2014,11,06,00,37,0.40
2014,11,06,00,38,0.00
2014,11,06,00,39,0.00
2014,11,06,00,40,0.00
2014,11,06,00,41,0.00
2014,11,06,00,42,0.00
2014,11,06,00,43,0.00
2014,11,06,00,44,0.00
2014,11,06,00,45,0.00
2014,11,06,00,46,0.00
2014,11,06,00,47,0.10
2014,11,06,00,48,0.00
2014,11,06,00,49,0.00
2014,11,06,00,50,0.00
2014,11,06,00,51,0.00
2014,11,06,00,52,0.00
2014,11,06,00,53,0.00
2014,11,06,00,54,0.00
2014,11,06,00,55,0.00
2014,11,06,00,56,0.00
2014,11,06,00,57,0.00
2014,11,06,00,58,0.00
2014,11,06,00,59,0.00
2014,11,06,01,00,0.00
2014,11,06,01,01,0.00
2014,11,06,01,02,0.00
2014,11,06,01,03,0.00
2014,11,06,01,04,0.00
2014,11,06,01,05,0.00
2014,11,06,01,06,0.00
2014,11,06,01,07,0.00
2014,11,06,01,08,0.00
2014,11,06,01,09,0.00
2014,11,06,01,10,0.10
2014,11,06,01,11,0.00
2014,11,06,01,12,0.00
2014,11,06,01,13,0.00
2014,11,06,01,14,0.00
2014,11,06,01,15,0.00
2014,11,06,01,16,0.00
2014,11,06,01,17,0.00
2014,11,06,01,18,0.00
2014,11,06,01,19,0.00
2014,11,06,01,20,0.00
2014,11,06,01,21,0.00
2014,11,06,01,22,0.00
2014,11,06,01,23,0.00
2014,11,06,01,24,0.00
2014,11,06,01,25,0.00
2014,11,06,01,26,0.00
2014,11,06,01,27,0.00
2014,11,06,01,28,0.00
2014,11,06,01,29,0.00
2014,11,06,01,30,0.00
2014,11,06,01,31,0.00
2014,11,06,01,32,0.00
2014,11,06,01,33,0.00
2014,11,06,01,34,0.00
2014,11,06,01,35,0.00
2014,11,06,01,36,0.00
2014,11,06,01,37,0.00
2014,11,06,01,38,0.00
2014,11,06,01,39,0.00
2014,11,06,01,40,0.00
2014,11,06,01,41,0.00
2014,11,06,01,42,0.00
2014,11,06,01,43,0.00
2014,11,06,01,44,0.00
2014,11,06,01,45,0.10
2014,11,06,01,46,0.00
2014,11,06,01,47,0.00
2014,11,06,01,48,0.00
2014,11,06,01,49,0.00
2014,11,06,01,50,0.00
2014,11,06,01,51,0.00
2014,11,06,01,52,0.00
2014,11,06,01,53,0.00
2014,11,06,01,54,0.00
2014,11,06,01,55,0.00
2014,11,06,01,56,0.00
2014,11,06,01,57,0.00
2014,11,06,01,58,0.00
2014,11,06,01,59,0.00
2014,11,06,02,00,0.00
2014,11,06,02,01,0.00
2014,11,06,02,02,0.00
2014,11,06,02,03,0.00
2014,11,06,02,04,0.00
2014,11,06,02,05,0.00
2014,11,06,02,06,0.00
2014,11,06,02,07,0.00
2014,11,06,02,08,0.00
2014,11,06,02,09,0.00
2014,11,06,02,10,0.00
2014,11,06,02,11,0.00
2014,11,06,02,12,0.00
2014,11,06,02,13,0.00
2014,11,06,02,14,0.00
2014,11,06,02,15,0.00
2014,11,06,02,16,0.00
2014,11,06,02,17,0.00
2014,11,06,02,18,0.00
2014,11,06,02,19,0.00
2014,11,06,02,20,0.00
2014,11,06,02,21,0.00
2014,11,06,02,22,0.00
2014,11,06,02,23,0.00
2014,11,06,02,24,0.00
2014,11,06,02,25,0.00
2014,11,06,02,26,0.00
2014,11,06,02,27,0.00
2014,11,06,02,28,0.00
2014,11,06,02,29,0.00
2014,11,06,02,30,0.00
2014,11,06,02,31,0.00
2014,11,06,02,32,0.00
2014,11,06,02,33,0.00
2014,11,06,02,34,0.00
2014,11,06,02,35,0.00
2014,11,06,02,36,0.00
2014,11,06,02,37,0.00
2014,11,06,02,38,0.00
2014,11,06,02,39,0.00
2014,11,06,02,40,0.00
2014,11,06,02,41,0.00
2014,11,06,02,42,0.00
2014,11,06,02,43,0.00
2014,11,06,02,44,0.00
2014,11,06,02,45,0.00
2014,11,06,02,46,0.00
2014,11,06,02,47,0.00
2014,11,06,02,48,0.10
2014,11,06,02,49,0.00
2014,11,06,02,50,0.00
2014,11,06,02,51,0.00
2014,11,06,02,52,0.00
2014,11,06,02,53,0.00
2014,11,06,02,54,0.00
2014,11,06,02,55,0.00
2014,11,06,02,56,0.00
2014,11,06,02,57,0.00
2014,11,06,02,58,0.00
2014,11,06,02,59,0.00
2014,11,06,03,00,0.00
2014,11,06,03,01,0.00
2014,11,06,03,02,0.00
2014,11,06,03,03,0.00
2014,11,06,03,04,0.00
2014,11,06,03,05,0.00
2014,11,06,03,06,0.00
2014,11,06,03,07,0.00
2014,11,06,03,08,0.00
2014,11,06,03,09,0.00
2014,11,06,03,10,0.00
2014,11,06,03,11,0.00
2014,11,06,03,12,2.60
2014,11,06,03,13,3.70
2014,11,06,03,14,1.20
2014,11,06,03,15,0.00
2014,11,06,03,16,0.00
2014,11,06,03,17,0.00
2014,11,06,03,18,0.00
2014,11,06,03,19,0.00
2014,11,06,03,20,0.00
2014,11,06,03,21,0.00
2014,11,06,03,22,0.00
2014,11,06,03,23,0.00
2014,11,06,03,24,0.10
2014,11,06,03,25,0.00
2014,11,06,03,26,0.00
2014,11,06,03,27,0.00
2014,11,06,03,28,0.00
2014,11,06,03,29,0.00
2014,11,06,03,30,0.00
2014,11,06,03,31,0.00
2014,11,06,03,32,0.00
2014,11,06,03,33,0.00
2014,11,06,03,34,0.00
2014,11,06,03,35,0.00
2014,11,06,03,36,0.00
2014,11,06,03,37,0.00
2014,11,06,03,38,1.10
2014,11,06,03,39,0.00
2014,11,06,03,40,0.00
2014,11,06,03,41,0.00
2014,11,06,03,42,0.00
2014,11,06,03,43,2.00
2014,11,06,03,44,1.40
2014,11,06,03,45,0.00
2014,11,06,03,46,0.00
2014,11,06,03,47,0.00
2014,11,06,03,48,0.00
2014,11,06,03,49,0.00
2014,11,06,03,50,0.00
2014,11,06,03,51,0.00
2014,11,06,03,52,0.00
2014,11,06,03,53,0.00
2014,11,06,03,54,0.00
2014,11,06,03,55,0.00
2014,11,06,03,56,0.00
2014,11,06,03,57,0.00
2014,11,06,03,58,0.00
2014,11,06,03,59,0.00
2014,11,06,04,00,0.00
2014,11,06,04,01,0.00
2014,11,06,04,02,0.00
2014,11,06,04,03,0.00
2014,11,06,04,04,0.00
2014,11,06,04,05,0.00
2014,11,06,04,06,0.00
2014,11,06,04,07,0.00
2014,11,06,04,08,0.00
2014,11,06,04,09,0.00
2014,11,06,04,10,0.00
2014,11,06,04,11,0.00
2014,11,06,04,12,0.00
2014,11,06,04,13,0.00
2014,11,06,04,14,0.00
2014,11,06,04,15,0.00
2014,11,06,04,16,0.00
2014,11,06,04,17,0.00
2014,11,06,04,18,0.00
2014,11,06,04,19,0.00
2014,11,06,04,20,0.00
2014,11,06,04,21,0.00
2014,11,06,04,22,0.00
2014,11,06,04,23,0.00
2014,11,06,04,24,0.00
2014,11,06,04,25,0.00
2014,11,06,04,26,0.00
2014,11,06,04,27,0.00
2014,11,06,04,28,0.00
2014,11,06,04,29,0.00
2014,11,06,04,30,0.00
2014,11,06,04,31,0.00
2014,11,06,04,32,0.10
2014,11,06,04,33,0.00
2014,11,06,04,34,0.00
2014,11,06,04,35,0.00
2014,11,06,04,36,0.00
2014,11,06,04,37,0.00
2014,11,06,04,38,0.00
2014,11,06,04,39,0.00
2014,11,06,04,40,0.00
2014,11,06,04,41,0.00
2014,11,06,04,42,0.00
2014,11,06,04,43,0.00
2014,11,06,04,44,0.00
2014,11,06,04,45,0.00
2014,11,06,04,46,0.00
2014,11,06,04,47,0.10
2014,11,06,04,48,0.00
2014,11,06,04,49,0.00
2014,11,06,04,50,0.00
2014,11,06,04,51,0.00
2014,11,06,04,52,0.00
2014,11,06,04,53,0.00
2014,11,06,04,54,0.00
2014,11,06,04,55,0.00
2014,11,06,04,56,0.00
2014,11,06,04,57,0.00
2014,11,06,04,58,0.00
2014,11,06,04,59,0.20
2014,11,06,05,00,0.50
2014,11,06,05,01,0.00
2014,11,06,05,02,0.00
2014,11,06,05,03,0.00
2014,11,06,05,04,0.00
2014,11,06,05,05,0.00
2014,11,06,05,06,0.00
2014,11,06,05,07,0.00
2014,11,06,05,08,0.00
2014,11,06,05,09,0.00
2014,11,06,05,10,0.00
2014,11,06,05,11,0.00
2014,11,06,05,12,0.00
2014,11,06,05,13,0.00
2014,11,06,05,14,0.00
2014,11,06,05,15,0.00
2014,11,06,05,16,0.00
2014,11,06,05,17,0.10
2014,11,06,05,18,0.00
2014,11,06,05,19,0.00
2014,11,06,05,20,0.00
2014,11,06,05,21,0.00
2014,11,06,05,22,0.00
2014,11,06,05,23,0.10
2014,11,06,05,24,0.00
2014,11,06,05,25,0.00
2014,11,06,05,26,2.00
2014,11,06,05,27,0.00
2014,11,06,05,28,0.00
2014,11,06,05,29,0.00
2014,11,06,05,30,0.00
2014,11,06,05,31,0.00
2014,11,06,05,32,0.10
2014,11,06,05,33,0.00
2014,11,06,05,34,0.00
2014,11,06,05,35,0.00
2014,11,06,05,36,0.00
2014,11,06,05,37,0.00
2014,11,06,05,38,0.00
2014,11,06,05,39,0.00
2014,11,06,05,40,0.00
2014,11,06,05,41,0.50
2014,11,06,05,42,0.00
2014,11,06,05,43,0.40
2014,11,06,05,44,0.00
2014,11,06,05,45,0.00
2014,11,06,05,46,0.00
2014,11,06,05,47,0.00
2014,11,06,05,48,0.00
2014,11,06,05,49,0.00
2014,11,06,05,50,0.00
2014,11,06,05,51,0.00
2014,11,06,05,52,0.00
2014,11,06,05,53,0.10
2014,11,06,05,54,0.00
2014,11,06,05,55,0.00
2014,11,06,05,56,0.00
2014,11,06,05,57,0.00
2014,11,06,05,58,0.00
2014,11,06,05,59,0.00
2014,11,06,06,00,0.90
2014,11,06,06,01,1.80
2014,11,06,06,02,0.80
2014,11,06,06,03,2.00
2014,11,06,06,04,0.40
2014,11,06,06,05,0.00
2014,11,06,06,06,0.00
2014,11,06,06,07,0.00
2014,11,06,06,08,0.00
2014,11,06,06,09,0.10
2014,11,06,06,10,0.00
2014,11,06,06,11,0.00
2014,11,06,06,12,0.00
2014,11,06,06,13,0.00
2014,11,06,06,14,0.00
2014,11,06,06,15,0.00
2014,11,06,06,16,0.10
2014,11,06,06,17,0.00
2014,11,06,06,18,0.00
2014,11,06,06,19,0.20
2014,11,06,06,20,0.00
2014,11,06,06,21,0.00
2014,11,06,06,22,1.00
2014,11,06,06,23,0.00
2014,11,06,06,24,0.00
2014,11,06,06,25,0.00
2014,11,06,06,26,0.00
2014,11,06,06,27,0.10
2014,11,06,06,28,0.80
2014,11,06,06,29,0.00
2014,11,06,06,30,0.00
2014,11,06,06,31,0.00
2014,11,06,06,32,0.00
2014,11,06,06,33,0.10
2014,11,06,06,34,0.00
2014,11,06,06,35,0.10
2014,11,06,06,36,0.10
2014,11,06,06,37,0.00
2014,11,06,06,38,0.00
2014,11,06,06,39,0.00
2014,11,06,06,40,0.00
2014,11,06,06,41,0.40
2014,11,06,06,42,0.70
2014,11,06,06,43,0.00
2014,11,06,06,44,0.00
2014,11,06,06,45,0.00
2014,11,06,06,46,0.40
2014,11,06,06,47,0.70
2014,11,06,06,48,0.00
2014,11,06,06,49,0.10
2014,11,06,06,50,2.70
2014,11,06,06,51,1.00
2014,11,06,06,52,0.00
2014,11,06,06,53,0.20
2014,11,06,06,54,4.00
2014,11,06,06,55,2.10
2014,11,06,06,56,1.60
2014,11,06,06,57,1.60
2014,11,06,06,58,0.00
2014,11,06,06,59,1.40
2014,11,06,07,00,0.00
2014,11,06,07,01,0.00
2014,11,06,07,02,0.00
2014,11,06,07,03,0.00
2014,11,06,07,04,0.00
2014,11,06,07,05,0.00
2014,11,06,07,06,0.00
2014,11,06,07,07,0.00
2014,11,06,07,08,0.10
2014,11,06,07,09,0.00
2014,11,06,07,10,0.00
2014,11,06,07,11,0.00
2014,11,06,07,12,0.00
2014,11,06,07,13,0.00
2014,11,06,07,14,0.00
2014,11,06,07,15,0.00
2014,11,06,07,16,0.00
2014,11,06,07,17,0.00
2014,11,06,07,18,0.20
2014,11,06,07,19,0.90
2014,11,06,07,20,0.10
2014,11,06,07,21,3.10
2014,11,06,07,22,4.10
2014,11,06,07,23,4.90
2014,11,06,07,24,5.30
2014,11,06,07,25,4.80
2014,11,06,07,26,3.10
2014,11,06,07,27,1.80
2014,11,06,07,28,4.00
2014,11,06,07,29,7.70
2014,11,06,07,30,8.40
2014,11,06,07,31,5.70
2014,11,06,07,32,6.40
2014,11,06,07,33,3.40
2014,11,06,07,34,4.90
2014,11,06,07,35,5.10
2014,11,06,07,36,4.50
2014,11,06,07,37,5.70
2014,11,06,07,38,4.70
2014,11,06,07,39,5.60
2014,11,06,07,40,4.10
2014,11,06,07,41,2.70
2014,11,06,07,42,3.80
2014,11,06,07,43,4.70
2014,11,06,07,44,5.30
2014,11,06,07,45,5.60
2014,11,06,07,46,2.20
2014,11,06,07,47,0.10
2014,11,06,07,48,2.00
2014,11,06,07,49,3.60
2014,11,06,07,50,4.30
2014,11,06,07,51,0.00
2014,11,06,07,52,0.00
2014,11,06,07,53,0.00
2014,11,06,07,54,0.00
2014,11,06,07,55,0.00
2014,11,06,07,56,0.00
2014,11,06,07,57,1.50
2014,11,06,07,58,3.40
2014,11,06,07,59,2.00
2014,11,06,08,00,3.90
2014,11,06,08,01,2.80
2014,11,06,08,02,1.30
2014,11,06,08,03,0.10
2014,11,06,08,04,0.00
2014,11,06,08,05,0.00
2014,11,06,08,06,0.00
2014,11,06,08,07,0.00
2014,11,06,08,08,0.00
2014,11,06,08,09,0.00
2014,11,06,08,10,0.00
2014,11,06,08,11,0.00
2014,11,06,08,12,0.00
2014,11,06,08,13,0.70
2014,11,06,08,14,0.00
2014,11,06,08,15,0.00
2014,11,06,08,16,0.00
2014,11,06,08,17,4.00
2014,11,06,08,18,7.10
2014,11,06,08,19,7.30
2014,11,06,08,20,7.10
2014,11,06,08,21,4.80
2014,11,06,08,22,0.10
2014,11,06,08,23,0.10
2014,11,06,08,24,6.30
2014,11,06,08,25,4.30
2014,11,06,08,26,7.20
2014,11,06,08,27,3.70
2014,11,06,08,28,4.00
2014,11,06,08,29,5.80
2014,11,06,08,30,4.50
2014,11,06,08,31,5.00
2014,11,06,08,32,3.90
2014,11,06,08,33,4.10
2014,11,06,08,34,1.10
2014,11,06,08,35,1.50
2014,11,06,08,36,0.00
2014,11,06,08,37,0.00
2014,11,06,08,38,0.00
2014,11,06,08,39,0.00
2014,11,06,08,40,0.70
2014,11,06,08,41,0.20
2014,11,06,08,42,0.10
2014,11,06,08,43,2.50
2014,11,06,08,44,0.30
2014,11,06,08,45,1.30
2014,11,06,08,46,2.60
2014,11,06,08,47,0.40
2014,11,06,08,48,0.00
2014,11,06,08,49,2.00
2014,11,06,08,50,2.40
2014,11,06,08,51,1.50
2014,11,06,08,52,2.30
2014,11,06,08,53,0.00
2014,11,06,08,54,0.60
2014,11,06,08,55,3.00
2014,11,06,08,56,4.10
2014,11,06,08,57,4.30
2014,11,06,08,58,2.70
2014,11,06,08,59,2.10
2014,11,06,09,00,2.10
2014,11,06,09,01,3.10
2014,11,06,09,02,5.30
2014,11,06,09,03,5.20
2014,11,06,09,04,5.00
2014,11,06,09,05,2.30
2014,11,06,09,06,2.80
2014,11,06,09,07,1.80
2014,11,06,09,08,2.10
2014,11,06,09,09,1.80
2014,11,06,09,10,5.20
2014,11,06,09,11,1.80
2014,11,06,09,12,0.80
2014,11,06,09,13,1.00
2014,11,06,09,14,1.50
2014,11,06,09,15,2.90
2014,11,06,09,16,2.00
2014,11,06,09,17,2.50
2014,11,06,09,18,5.30
2014,11,06,09,19,1.10
2014,11,06,09,20,0.00
2014,11,06,09,21,1.70
2014,11,06,09,22,4.70
2014,11,06,09,23,6.10
2014,11,06,09,24,5.70
2014,11,06,09,25,5.30
2014,11,06,09,26,4.80
2014,11,06,09,27,4.90
2014,11,06,09,28,5.70
2014,11,06,09,29,5.20
2014,11,06,09,30,4.70
2014,11,06,09,31,3.30
2014,11,06,09,32,4.10
2014,11,06,09,33,5.50
2014,11,06,09,34,2.50
2014,11,06,09,35,12.10
2014,11,06,09,36,6.40
2014,11,06,09,37,8.30
2014,11,06,09,38,9.40
2014,11,06,09,39,8.60
2014,11,06,09,40,9.80
2014,11,06,09,41,12.30
2014,11,06,09,42,9.30
2014,11,06,09,43,11.90
2014,11,06,09,44,12.90
2014,11,06,09,45,6.70
2014,11,06,09,46,14.10
2014,11,06,09,47,7.80
2014,11,06,09,48,8.20
2014,11,06,09,49,13.90
2014,11,06,09,50,5.10
2014,11,06,09,51,9.40
2014,11,06,09,52,10.10
2014,11,06,09,53,11.30
2014,11,06,09,54,11.00
2014,11,06,09,55,7.30
2014,11,06,09,56,9.70
2014,11,06,09,57,6.60
2014,11,06,09,58,7.40
2014,11,06,09,59,14.80
2014,11,06,10,00,11.20
2014,11,06,10,01,10.10
2014,11,06,10,02,11.30
2014,11,06,10,03,12.40
2014,11,06,10,04,10.90
2014,11,06,10,05,12.00
2014,11,06,10,06,7.10
2014,11,06,10,07,6.20
2014,11,06,10,08,3.90
2014,11,06,10,09,9.20
2014,11,06,10,10,10.90
2014,11,06,10,11,8.50
2014,11,06,10,12,6.10
2014,11,06,10,13,10.90
2014,11,06,10,14,4.10
2014,11,06,10,15,7.10
2014,11,06,10,16,10.10
2014,11,06,10,17,8.50
2014,11,06,10,18,11.80
2014,11,06,10,19,11.00
2014,11,06,10,20,8.90
2014,11,06,10,21,5.60
2014,11,06,10,22,9.90
2014,11,06,10,23,10.50
2014,11,06,10,24,9.40
2014,11,06,10,25,6.10
2014,11,06,10,26,5.80
2014,11,06,10,27,8.60
2014,11,06,10,28,14.70
2014,11,06,10,29,11.60
2014,11,06,10,30,6.60
2014,11,06,10,31,13.20
2014,11,06,10,32,9.90
2014,11,06,10,33,8.20
2014,11,06,10,34,7.20
2014,11,06,10,35,8.80
2014,11,06,10,36,13.80
2014,11,06,10,37,6.50
2014,11,06,10,38,10.30
2014,11,06,10,39,7.80
2014,11,06,10,40,5.90
2014,11,06,10,41,9.20
2014,11,06,10,42,11.30
2014,11,06,10,43,6.70
2014,11,06,10,44,13.00
2014,11,06,10,45,6.90
2014,11,06,10,46,4.90
2014,11,06,10,47,8.30
2014,11,06,10,48,6.90
2014,11,06,10,49,1.00
2014,11,06,10,50,7.50
2014,11,06,10,51,7.60
2014,11,06,10,52,10.50
2014,11,06,10,53,13.20
2014,11,06,10,54,10.00
2014,11,06,10,55,11.80
2014,11,06,10,56,11.10
2014,11,06,10,57,9.00
2014,11,06,10,58,6.70
2014,11,06,10,59,7.20
2014,11,06,11,00,7.60
2014,11,06,11,01,12.10
2014,11,06,11,02,12.10
2014,11,06,11,03,13.90
2014,11,06,11,04,5.60
2014,11,06,11,05,7.50
2014,11,06,11,06,9.40
2014,11,06,11,07,8.10
2014,11,06,11,08,8.50
2014,11,06,11,09,8.10
2014,11,06,11,10,9.30
2014,11,06,11,11,4.30
2014,11,06,11,12,2.40
2014,11,06,11,13,3.90
2014,11,06,11,14,8.60
2014,11,06,11,15,10.10
2014,11,06,11,16,8.90
2014,11,06,11,17,10.20
2014,11,06,11,18,11.80
2014,11,06,11,19,18.10
2014,11,06,11,20,17.90
2014,11,06,11,21,12.60
2014,11,06,11,22,23.00
2014,11,06,11,23,32.80
2014,11,06,11,24,19.90
2014,11,06,11,25,29.10
2014,11,06,11,26,32.00
2014,11,06,11,27,18.90
2014,11,06,11,28,20.70
2014,11,06,11,29,27.70
2014,11,06,11,30,27.70
2014,11,06,11,31,35.30
2014,11,06,11,32,51.40
2014,11,06,11,33,43.10
2014,11,06,11,34,35.00
2014,11,06,11,35,32.60
2014,11,06,11,36,24.40
2014,11,06,11,37,30.20
2014,11,06,11,38,18.40
2014,11,06,11,39,19.10
2014,11,06,11,40,24.90
2014,11,06,11,41,27.30
2014,11,06,11,42,26.00
2014,11,06,11,43,28.60
2014,11,06,11,44,24.40
2014,11,06,11,45,21.90
2014,11,06,11,46,25.30
2014,11,06,11,47,30.60
2014,11,06,11,48,20.40
2014,11,06,11,49,19.00
2014,11,06,11,50,16.30
2014,11,06,11,51,18.50
2014,11,06,11,52,16.30
2014,11,06,11,53,17.10
2014,11,06,11,54,19.40
2014,11,06,11,55,21.20
2014,11,06,11,56,26.80
2014,11,06,11,57,21.70
2014,11,06,11,58,23.50
2014,11,06,11,59,16.10
2014,11,06,12,00,14.50
2014,11,06,12,01,16.00
2014,11,06,12,02,18.50
2014,11,06,12,03,24.10
2014,11,06,12,04,22.50
2014,11,06,12,05,15.90
2014,11,06,12,06,17.80
2014,11,06,12,07,25.70
2014,11,06,12,08,27.40
2014,11,06,12,09,14.80
2014,11,06,12,10,24.60
2014,11,06,12,11,23.80
2014,11,06,12,12,25.30
2014,11,06,12,13,17.60
2014,11,06,12,14,26.00
2014,11,06,12,15,17.00
2014,11,06,12,16,25.30
2014,11,06,12,17,22.20
2014,11,06,12,18,17.40
2014,11,06,12,19,21.10
2014,11,06,12,20,30.00
2014,11,06,12,21,26.00
2014,11,06,12,22,23.90
2014,11,06,12,23,26.10
2014,11,06,12,24,19.00
2014,11,06,12,25,24.90
2014,11,06,12,26,24.70
2014,11,06,12,27,27.60
2014,11,06,12,28,17.20
2014,11,06,12,29,16.60
2014,11,06,12,30,17.10
2014,11,06,12,31,19.50
2014,11,06,12,32,23.90
2014,11,06,12,33,23.90
2014,11,06,12,34,25.90
2014,11,06,12,35,33.70
2014,11,06,12,36,25.50
2014,11,06,12,37,28.10
2014,11,06,12,38,25.00
2014,11,06,12,39,23.70
2014,11,06,12,40,27.10
2014,11,06,12,41,17.60
2014,11,06,12,42,24.10
2014,11,06,12,43,28.20
2014,11,06,12,44,22.70
2014,11,06,12,45,18.10
2014,11,06,12,46,27.20
2014,11,06,12,47,25.20
2014,11,06,12,48,24.60
2014,11,06,12,49,19.60
2014,11,06,12,50,15.70
2014,11,06,12,51,19.60
2014,11,06,12,52,24.70
2014,11,06,12,53,26.10
2014,11,06,12,54,23.50
2014,11,06,12,55,16.60
2014,11,06,12,56,26.00
2014,11,06,12,57,32.40
2014,11,06,12,58,27.80
2014,11,06,12,59,22.90
2014,11,06,13,00,24.80
2014,11,06,13,01,17.80
2014,11,06,13,02,28.50
2014,11,06,13,03,35.10
2014,11,06,13,04,24.70
2014,11,06,13,07,34.80
2014,11,06,13,30,27.20
2014,11,06,13,31,24.30
2014,11,06,13,32,25.10
2014,11,06,13,33,28.20
2014,11,06,13,34,31.60
2014,11,06,13,35,29.20
2014,11,06,13,36,30.40
2014,11,06,13,37,28.40
2014,11,06,13,38,30.70
2014,11,06,13,39,22.30
2014,11,06,13,40,26.40
2014,11,06,13,41,28.10
2014,11,06,13,42,24.70
2014,11,06,13,43,32.20
2014,11,06,13,44,29.10
2014,11,06,13,45,33.30
2014,11,06,13,46,31.80
2014,11,06,13,47,27.80
2014,11,06,13,48,29.60
2014,11,06,13,49,30.00
2014,11,06,13,50,28.20
2014,11,06,13,51,27.20
2014,11,06,13,52,27.50
2014,11,06,13,53,26.10
2014,11,06,13,54,32.60
2014,11,06,13,55,34.00
2014,11,06,13,56,39.80
2014,11,06,13,57,34.50
2014,11,06,13,58,29.30
2014,11,06,13,59,27.80
2014,11,06,14,00,28.20
2014,11,06,14,01,26.10
2014,11,06,14,02,28.80
2014,11,06,14,03,27.00
2014,11,06,14,04,24.40
2014,11,06,14,05,26.80
2014,11,06,14,06,25.70
2014,11,06,14,07,31.10
2014,11,06,14,08,25.80
2014,11,06,14,09,29.50
2014,11,06,14,10,31.40
2014,11,06,14,11,26.90
2014,11,06,14,12,30.30
2014,11,06,14,13,25.90
2014,11,06,14,14,26.80
2014,11,06,14,15,29.30
2014,11,06,14,16,24.60
2014,11,06,14,17,31.00
2014,11,06,14,18,30.10
2014,11,06,14,19,18.10
2014,11,06,14,20,21.80
2014,11,06,14,21,26.00
2014,11,06,14,22,26.80
2014,11,06,14,23,21.80
2014,11,06,14,24,20.90
2014,11,06,14,25,17.80
2014,11,06,14,26,18.50
2014,11,06,14,27,23.50
2014,11,06,14,28,21.50
2014,11,06,14,29,13.80
2014,11,06,14,30,17.40
2014,11,06,14,31,15.40
2014,11,06,14,32,20.70
2014,11,06,14,33,26.20
2014,11,06,14,34,25.50
2014,11,06,14,35,14.50
2014,11,06,14,36,22.50
2014,11,06,14,37,21.80
2014,11,06,14,38,29.30
2014,11,06,14,39,22.70
2014,11,06,14,40,29.40
2014,11,06,14,41,21.30
2014,11,06,14,42,18.10
2014,11,06,14,43,22.70
2014,11,06,14,44,17.50
2014,11,06,14,45,13.80
2014,11,06,14,46,26.10
2014,11,06,14,47,28.10
2014,11,06,14,48,17.90
2014,11,06,14,49,13.50
2014,11,06,14,50,25.10
2014,11,06,14,51,25.70
2014,11,06,14,52,21.90
2014,11,06,14,53,28.30
2014,11,06,14,54,17.30
2014,11,06,14,55,21.90
2014,11,06,14,56,21.10
2014,11,06,14,57,18.50
2014,11,06,14,58,24.40
2014,11,06,14,59,18.80
2014,11,06,15,00,17.90
2014,11,06,15,01,26.40
2014,11,06,15,02,26.40
2014,11,06,15,03,38.50
2014,11,06,15,04,37.60
2014,11,06,15,05,32.70
2014,11,06,15,06,38.60
2014,11,06,15,07,28.60
2014,11,06,15,08,26.60
2014,11,06,15,09,32.30
2014,11,06,15,10,31.00
2014,11,06,15,11,29.70
2014,11,06,15,12,45.10
2014,11,06,15,13,38.00
2014,11,06,15,14,36.00
2014,11,06,15,15,24.40
2014,11,06,15,16,26.30
2014,11,06,15,17,26.70
2014,11,06,15,18,26.30
2014,11,06,15,19,31.30
2014,11,06,15,20,24.90
2014,11,06,15,21,25.60
2014,11,06,15,22,23.60
2014,11,06,15,23,27.10
2014,11,06,15,24,36.10
2014,11,06,15,25,44.30
2014,11,06,15,26,35.70
2014,11,06,15,27,24.40
2014,11,06,15,28,27.50
2014,11,06,15,29,17.00
2014,11,06,15,30,23.00
2014,11,06,15,31,22.50
2014,11,06,15,32,23.60
2014,11,06,15,33,32.10
2014,11,06,15,34,40.20
2014,11,06,15,35,40.40
2014,11,06,15,36,37.50
2014,11,06,15,37,28.00
2014,11,06,15,38,25.70
2014,11,06,15,39,22.50
2014,11,06,15,40,22.90
2014,11,06,15,41,18.70
2014,11,06,15,42,32.70
2014,11,06,15,43,22.70
2014,11,06,15,44,32.60
2014,11,06,15,45,26.10
2014,11,06,15,46,28.20
2014,11,06,15,47,22.10
2014,11,06,15,48,26.40
2014,11,06,15,49,29.70
2014,11,06,15,50,21.90
2014,11,06,15,51,25.90
2014,11,06,15,52,27.40
2014,11,06,15,53,26.60
2014,11,06,15,54,30.30
2014,11,06,15,55,31.00
2014,11,06,15,56,24.50
2014,11,06,15,57,29.70
2014,11,06,15,58,22.60
2014,11,06,15,59,35.00
2014,11,06,16,00,24.20
2014,11,06,16,01,26.20
2014,11,06,16,02,32.50
2014,11,06,16,03,33.90
2014,11,06,16,04,28.20
2014,11,06,16,05,28.30
2014,11,06,16,06,22.80
2014,11,06,16,07,24.10
2014,11,06,16,08,28.60
2014,11,06,16,09,31.10
2014,11,06,16,10,25.70
2014,11,06,16,11,28.50
2014,11,06,16,12,27.90
2014,11,06,16,13,27.40
2014,11,06,16,14,37.30
2014,11,06,16,15,30.80
2014,11,06,16,16,19.90
2014,11,06,16,17,23.30
2014,11,06,16,18,24.80
2014,11,06,16,19,31.80
2014,11,06,16,20,30.70
2014,11,06,16,21,36.50
2014,11,06,16,22,26.40
2014,11,06,16,23,22.60
2014,11,06,16,24,18.20
2014,11,06,16,25,33.10
2014,11,06,16,26,27.10
2014,11,06,16,27,21.70
2014,11,06,16,28,23.60
2014,11,06,16,29,36.90
2014,11,06,16,30,21.60
2014,11,06,16,31,18.10
2014,11,06,16,32,20.10
2014,11,06,16,33,25.70
2014,11,06,16,34,33.10
2014,11,06,16,35,25.30
2014,11,06,16,36,35.00
2014,11,06,16,37,26.70
2014,11,06,16,38,19.90
2014,11,06,16,39,25.20
2014,11,06,16,40,35.50
2014,11,06,16,41,24.10
2014,11,06,16,42,25.30
2014,11,06,16,43,18.10
2014,11,06,16,44,28.10
2014,11,06,16,45,32.50
2014,11,06,16,46,29.40
2014,11,06,16,47,22.50
2014,11,06,16,48,19.50
2014,11,06,16,49,25.00
2014,11,06,16,50,21.30
2014,11,06,16,52,22.40
2014,11,06,16,53,22.50
2014,11,06,16,54,17.60
2014,11,06,16,55,16.50
2014,11,06,16,56,19.60
2014,11,06,16,57,18.30
2014,11,06,16,58,20.00
2014,11,06,16,59,15.00
2014,11,06,17,00,12.70
2014,11,06,17,01,15.90
2014,11,06,17,02,23.80
2014,11,06,17,03,22.30
2014,11,06,17,04,16.60
2014,11,06,17,05,15.50
2014,11,06,17,06,17.00
2014,11,06,17,07,23.00
2014,11,06,17,08,17.00
2014,11,06,17,09,8.80
2014,11,06,17,10,21.10
2014,11,06,17,11,23.90
2014,11,06,17,12,24.10
2014,11,06,17,13,23.20
2014,11,06,17,14,20.80
2014,11,06,17,15,21.90
2014,11,06,17,16,16.90
2014,11,06,17,17,19.90
2014,11,06,17,18,22.90
2014,11,06,17,19,20.00
2014,11,06,17,20,16.50
2014,11,06,17,21,10.70
2014,11,06,17,22,18.20
2014,11,06,17,23,20.90
2014,11,06,17,24,25.90
2014,11,06,17,25,20.50
2014,11,06,17,26,21.60
2014,11,06,17,27,21.50
2014,11,06,17,28,26.10
2014,11,06,17,29,22.80
2014,11,06,17,30,24.20
2014,11,06,17,31,20.10
2014,11,06,17,32,21.70
2014,11,06,17,33,25.30
2014,11,06,17,34,25.90
2014,11,06,17,35,20.20
2014,11,06,17,36,19.10
2014,11,06,17,37,16.80
2014,11,06,17,38,20.40
2014,11,06,17,39,19.20
2014,11,06,17,40,23.20
2014,11,06,17,41,26.70
2014,11,06,17,42,23.40
2014,11,06,17,43,16.20
2014,11,06,17,44,18.80
2014,11,06,17,45,19.30
2014,11,06,17,46,19.60
2014,11,06,17,47,18.90
2014,11,06,17,48,16.60
2014,11,06,17,49,12.40
2014,11,06,17,50,13.60
2014,11,06,17,51,12.90
2014,11,06,17,52,16.00
2014,11,06,17,53,9.90
2014,11,06,17,54,12.50
2014,11,06,17,55,18.70
2014,11,06,17,56,17.80
2014,11,06,17,57,14.10
2014,11,06,17,58,11.00
2014,11,06,17,59,15.20
2014,11,06,18,00,20.70
2014,11,06,18,01,17.40
2014,11,06,18,02,18.90
2014,11,06,18,03,24.90
2014,11,06,18,04,17.90
2014,11,06,18,05,18.90
2014,11,06,18,06,22.90
2014,11,06,18,07,18.60
2014,11,06,18,08,18.60
2014,11,06,18,09,16.00
2014,11,06,18,10,14.60
2014,11,06,18,11,20.40
2014,11,06,18,12,21.80